Regional Weather Roundup
Issued by NWS

Current Version | Previous Version | Text Only | Print | Product List | Glossary On
Versions: 1 2 3 4 5 6 7 8 9 10 11 12 13 14 15 16 17 18 19 20 21 22 23 24 25 26 27 28 29 30 31 32 33 34 35 36 37 38 39 40 41 42 43 44 45 46 47 48 49 50
000
ASUS46 KSTO 081604
RWRCA

NORTHERN AND CENTRAL CA REGIONAL WEATHER ROUNDUP
NATIONAL WEATHER SERVICE SACRAMENTO CA
800 AM PST MON MAR 08 2021

NOTE: FAIR INDICATES FEW OR NO CLOUDS BELOW 12,000 FEET WITH NO
SIGNIFICANT WEATHER AND/OR OBSTRUCTIONS TO VISIBILITY.

CAZ001-003-081700-
NORTHWEST AREA

CITY           SKY/WX    TMP DP  RH WIND       PRES   REMARKS
CRESCENT CITY  MOSUNNY   45  38  76 S14       30.01S
UKIAH          PTSUNNY   38  34  85 CALM      30.15R
$$

CAZ006-505>513-081700-
BAY AREA

CITY           SKY/WX    TMP DP  RH WIND       PRES   REMARKS
SANTA ROSA     CLOUDY    40  39  97 CALM      30.17R
SAN RAFAEL     N/A       47  MM  MM MISG
NAPA           PTSUNNY   50  39  66 W9        30.17R
CONCORD        PTSUNNY   48  36  63 S5        30.18R
OAKLAND CITY   N/A       50  MM  MM MISG
OAKLAND        PTSUNNY   53  35  50 SW8       30.19R
SAN FRAN CITY  N/A       49  MM  49 MISG
SAN FRAN ARPT  CLOUDY    51  34  52 SW5       30.19R
LIVERMORE      CLOUDY    47  38  71 SW9       30.18R
HAYWARD        PTSUNNY   50  31  48 W8        30.19R
REDWOOD CITY   N/A       43  MM  84 MISG
MOFFETT ARPT   CLOUDY    48  37  66 CALM      30.20R
SAN JOSE ARPT  PTSUNNY   47  38  71 SE6       30.20R
$$
CAZ034-037-514>518-081700-
CENTRAL COAST

CITY           SKY/WX    TMP DP  RH WIND       PRES   REMARKS
WATSONVILLE    PTSUNNY   43  38  82 N3        30.22R
SALINAS        CLOUDY    46  40  79 SE10      30.21R
MONTEREY       CLOUDY    53  40  61 S3        30.21R
SAN LUIS OBISP MOSUNNY   50  43  77 CALM      30.23R
SANTA MARIA    SUNNY     48  43  82 CALM      30.23R
HALF MOON BAY  CLOUDY    50  36  57 W7        30.20R HAZE
$$
CAZ015-016-081700-
NORTHERN SACRAMENTO VALLEY

CITY           SKY/WX    TMP DP  RH WIND       PRES   REMARKS
REDDING        CLOUDY    46  40  79 S13       30.04R
RED BLUFF      CLOUDY    48  40  73 S15       30.06R
OROVILLE       SUNNY     49  38  65 S26G32    30.11R
$$
CAZ016>018-081700-
SOUTHERN SACRAMENTO VALLEY

CITY           SKY/WX    TMP DP  RH WIND       PRES   REMARKS
AUBURN         CLOUDY    41  36  81 S12G18    30.14R
BEALE AFB      SUNNY     47  38  70 SE21      30.13R
LINCOLN        FAIR      46  37  71 SE15      30.14R
MARYSVILLE     SUNNY     47  37  68 SE17      30.13R
SAC INTL ARPT  MOSUNNY   46  36  68 S14       30.14R
MATHER AIRPORT MOSUNNY   45  37  76 S13       30.15R
DOWNTOWN SAC   N/A       47  MM  MM MISG
SAC EXEC ARPT  SUNNY     47  38  71 S7        30.16R
VACAVILLE      SUNNY     48  34  58 SW22G28   30.14R
TRAVIS AFB     SUNNY     48  37  67 SW18      30.15R
$$
CAZ019>021-081700-
SAN JOAQUIN VALLEY

CITY           SKY/WX    TMP DP  RH WIND       PRES   REMARKS
STOCKTON       SUNNY     50  38  63 W7        30.18R
MODESTO        SUNNY     45  38  76 E3        30.18R
MERCED         SUNNY     48  38  68 N7        30.18R
LEMOORE        MOSUNNY   44  33  65 N8        30.17R
FRESNO         MOSUNNY   50  35  56 NW12      30.18R
HANFORD        SUNNY     47  40  76 CALM      30.17R
PORTERVILLE    SUNNY     50  40  68 S5        30.19R
BAKERSFIELD    SUNNY     50  37  61 CALM      30.16R
$$
CAZ011-012-071-081700-
NORTHERN MOUNTAINS

CITY           SKY/WX    TMP DP  RH WIND       PRES   REMARKS
YREKA          MOSUNNY   35  27  72 CALM      29.94S
MOUNT SHASTA   FLURRIES  36  30  79 SE5       29.94R WCI  32
ALTURAS        SNOW      32  32 100 S3        29.92S VSB 1/2
$$
CAZ011-012-071-081700-
SIERRA NEVADA MTNS

CITY           SKY/WX    TMP DP  RH WIND       PRES   REMARKS
BLUE CANYON    CLOUDY    29  27  92 S10G18    30.04R WCI  20
TRUCKEE        CLOUDY    34  23  64 S21G30    29.97R WCI  22
TAHOE VLY ARPT PTSUNNY   36  21  54 S14G26    29.95R WCI  27
MAMMOTH LAKES  FAIR      41   5  22 S26G39    29.96R
$$



USA.gov is the U.S. government's official web portal to all federal, state and local government web resources and services.